This demonstration page uses our WeatherBlox Daily Observations layout. Learn more.

Left ArrowRight Arrow

Hourly Observations for January 10, 2016

Temp ( °F °C ) Dew Point ( °F °C ) Humidity (%) Winds ( mph kmh ) Pressure ( in mb ) Visibility ( mi km ) Precip ( " mm )
12:54 am 00:54 Clear 0 -17.8 -8 -22.2 69 69 NNW 14 22 30.40 1029 10 16 0.00 0.00
1:54 am 01:54 Clear 0 -17.8 -8 -22.2 69 69 N 14 22 30.39 1029 10 16 0.00 0.00
2:54 am 02:54 Clear -1 -18.3 -9 -22.8 68 68 NNW 10 17 30.40 1029 10 16 0.00 0.00
3:54 am 03:54 Clear -2 -18.9 -8 -22.2 75 75 NW 8 13 30.39 1029 10 16 0.00 0.00
4:54 am 04:54 Clear -2 -18.9 -8 -22.2 75 75 NW 7 11 30.40 1029 10 16 0.00 0.00
5:54 am 05:54 Clear -2 -18.9 -9 -22.8 72 72 NW 7 11 30.40 1029 10 16 0.00 0.00
6:54 am 06:54 Clear -2 -18.9 -8 -22.2 75 75 NNW 5 7 30.40 1030 10 16 0.00 0.00
7:54 am 07:54 Sunny -2 -18.9 -8 -22.2 75 75 NW 5 7 30.40 1030 10 16 0.00 0.00
8:54 am 08:54 Sunny 0 -17.8 -7 -21.7 72 72 W 6 9 30.40 1030 10 16 0.00 0.00
9:54 am 09:54 Sunny 4 -15.6 -3 -19.4 73 73 SW 6 9 30.40 1029 10 16 0.00 0.00
10:54 am 10:54 Sunny 6 -14.4 -2 -18.9 69 69 WSW 7 11 30.38 1029 10 16 0.00 0.00
11:54 am 11:54 Sunny 10 -12.2 2 -16.7 69 69 SSW 12 19 30.33 1027 10 16 0.00 0.00
12:54 pm 12:54 Sunny 13 -10.6 4 -15.6 67 67 SW 8 13 30.28 1025 10 16 0.00 0.00
1:54 pm 13:54 Sunny 17 -8.3 7 -13.9 64 64 SSW 12 19 30.23 1024 10 16 0.00 0.00
2:54 pm 14:54 Sunny 18 -7.8 9 -12.8 68 68 SSW 12 19 30.20 1023 10 16 0.00 0.00
3:54 pm 15:54 Sunny 19 -7.2 10 -12.2 68 68 SSW 13 20 30.19 1023 10 16 0.00 0.00
4:54 pm 16:54 Mostly Sunny 19 -7.2 10 -12.2 68 68 SSW 10 17 30.19 1023 10 16 0.00 0.00
5:54 pm 17:54 Clear 17 -8.3 11 -11.7 77 77 SSW 6 9 30.19 1022 10 16 0.00 0.00
6:54 pm 18:54 Clear 13 -10.6 9 -12.8 84 84 S 7 11 30.16 1022 10 16 0.00 0.00
7:54 pm 19:54 Clear 14 -10 10 -12.2 84 84 S 7 11 30.15 1021 10 16 0.00 0.00
8:54 pm 20:54 Clear 15 -9.4 10 -12.2 80 80 S 6 9 30.12 1020 10 16 0.00 0.00
9:54 pm 21:54 Clear 17 -8.3 13 -10.6 84 84 S 6 9 30.09 1019 10 16 0.00 0.00
10:54 pm 22:54 Clear 16 -8.9 12 -11.1 84 84 S 5 7 30.08 1019 10 16 0.00 0.00
11:54 pm 23:54 Clear 16 -8.9 12 -11.1 84 84 SSW 3 6 30.06 1018 10 16 0.00 0.00

Powered by AerisWeather